This is the latest recevied weather packets stored in our database for station/object WD9EKA. If no packets are shown the sender has not sent any weather packets the latest 10 day(s).
| Time | Temp. | Humidity | Pressure | Rain* | Wind** | Luminosity | Snow |
|---|---|---|---|---|---|---|---|
| 1778147411 | 1.67° C | 99% | 1011.9 hPa | 0 mm | - | - | - |
| 1778146770 | 1.67° C | 99% | 1011.8 hPa | 0 mm | - | - | - |
| 1778146130 | 1.67° C | 99% | 1012.2 hPa | 0 mm | - | - | - |
| 1778145810 | 1.67° C | 99% | 1012 hPa | 0 mm | - | - | - |
| 1778145490 | 1.11° C | 99% | 1012 hPa | 0 mm | - | - | - |
| 1778145171 | 1.67° C | 99% | 1012.1 hPa | 0 mm | - | - | - |
| 1778144531 | 1.67° C | 99% | 1011.9 hPa | 0 mm | - | - | - |
| 1778144210 | 1.67° C | 99% | 1012 hPa | 0 mm | - | - | - |
| 1778143571 | 1.67° C | 99% | 1011.9 hPa | 0 mm | - | - | - |
| 1778143250 | 2.22° C | 99% | 1011.8 hPa | 0 mm | - | - | - |
| 1778142611 | 2.22° C | 99% | 1011.7 hPa | 0 mm | - | - | - |
| 1778142290 | 2.22° C | 99% | 1011.7 hPa | 0 mm | - | - | - |
| 1778141970 | 2.22° C | 99% | 1011.8 hPa | 0 mm | - | - | - |
| 1778141651 | 1.67° C | 99% | 1011.6 hPa | 0 mm | - | - | - |
| 1778141330 | 1.67° C | 98% | 1011.8 hPa | 0 mm | - | - | - |
| 1778141010 | 2.22° C | 98% | 1011.8 hPa | 0 mm | - | - | - |
| 1778140691 | 2.22° C | 98% | 1011.7 hPa | 0 mm | - | - | - |
| 1778140370 | 2.22° C | 98% | 1011.8 hPa | 0 mm | - | - | - |
| 1778140050 | 2.22° C | 98% | 1011.9 hPa | 0 mm | - | - | - |
| 1778139731 | 2.78° C | 98% | 1011.7 hPa | 0 mm | - | - | - |
| 1778139410 | 2.22° C | 98% | 1011.9 hPa | 0 mm | - | - | - |
| 1778139090 | 2.22° C | 97% | 1011.9 hPa | 0 mm | - | - | - |
| 1778138771 | 2.22° C | 97% | 1012.1 hPa | 0 mm | - | - | - |
| 1778138450 | 2.22° C | 97% | 1011.8 hPa | 0 mm | - | - | - |
| 1778138130 | 2.78° C | 97% | 1011.7 hPa | 0 mm | - | - | - |
* Rain latest hour (hover to see other rain measurements)
** Current wind speed in m/s (hover to see current wind gust speed)